Satellite: NOAA-11
Catalog number: 19531
Epoch time:      06144.73980817
Element set:    0129
Inclination:      098.8255 deg
RA of node:       233.4089 deg
Eccentricity:    0.0012389
Arg of perigee:   059.2300 deg
Mean anomaly:     301.0112 deg
Mean motion:   14.14797142 rev/day
Decay rate:      -1.06e-06 rev/day^2
Epoch rev:           91122
Checksum:              280

Satellite: NOAA-12
Catalog number: 21263
Epoch time:      06144.80206944
Element set:    0623
Inclination:      098.7289 deg
RA of node:       138.1865 deg
Eccentricity:    0.0013075
Arg of perigee:   152.0017 deg
Mean anomaly:     208.1874 deg
Mean motion:   14.25488295 rev/day
Decay rate:        2.3e-07 rev/day^2
Epoch rev:           78091
Checksum:              302

Satellite: MET-3/5
Catalog number: 21655
Epoch time:      06144.89121505
Element set:    0129
Inclination:      082.5528 deg
RA of node:       277.2465 deg
Eccentricity:    0.0014291
Arg of perigee:   097.9959 deg
Mean anomaly:     262.2786 deg
Mean motion:   13.17005759 rev/day
Decay rate:        5.1e-07 rev/day^2
Epoch rev:           71029
Checksum:              320

Satellite: MET-2/21
Catalog number: 22782
Epoch time:      06144.67426092
Element set:    0515
Inclination:      082.5489 deg
RA of node:       350.1098 deg
Eccentricity:    0.0020880
Arg of perigee:   244.6870 deg
Mean anomaly:     115.2114 deg
Mean motion:   13.83604726 rev/day
Decay rate:        3.0e-08 rev/day^2
Epoch rev:           64279
Checksum:              297

Satellite: OKEAN-4
Catalog number: 23317
Epoch time:      06144.72787239
Element set:     951
Inclination:      082.5379 deg
RA of node:       298.8835 deg
Eccentricity:    0.0024024
Arg of perigee:   091.7243 deg
Mean anomaly:     268.6707 deg
Mean motion:   14.82357766 rev/day
Decay rate:       1.14e-06 rev/day^2
Epoch rev:           62650
Checksum:              330

Satellite: NOAA-14
Catalog number: 23455
Epoch time:      06144.73038140
Element set:    0128
Inclination:      099.0390 deg
RA of node:       202.7495 deg
Eccentricity:    0.0010227
Arg of perigee:   116.3079 deg
Mean anomaly:     243.9160 deg
Mean motion:   14.13658596 rev/day
Decay rate:       -6.6e-07 rev/day^2
Epoch rev:           58775
Checksum:              303

Satellite: SICH-1
Catalog number: 23657
Epoch time:      06144.70619544
Element set:    0756
Inclination:      082.5277 deg
RA of node:       079.7974 deg
Eccentricity:    0.0025810
Arg of perigee:   080.3177 deg
Mean anomaly:     280.0939 deg
Mean motion:   14.81353720 rev/day
Decay rate:        4.0e-07 rev/day^2
Epoch rev:           57851
Checksum:              315

Satellite: NOAA-15
Catalog number: 25338
Epoch time:      06144.84591907
Element set:    0522
Inclination:      098.5153 deg
RA of node:       147.8474 deg
Eccentricity:    0.0011686
Arg of perigee:   082.4530 deg
Mean anomaly:     277.7991 deg
Mean motion:   14.24579750 rev/day
Decay rate:        2.3e-07 rev/day^2
Epoch rev:           41739
Checksum:              330

Satellite: RESURS
Catalog number: 25394
Epoch time:      06144.74740005
Element set:    0384
Inclination:      098.4906 deg
RA of node:       208.4259 deg
Eccentricity:    0.0000555
Arg of perigee:   242.6691 deg
Mean anomaly:     117.4432 deg
Mean motion:   14.24101217 rev/day
Decay rate:        8.0e-08 rev/day^2
Epoch rev:           40906
Checksum:              274

Satellite: FENGYUN1
Catalog number: 25730
Epoch time:      06144.59273338
Element set:     735
Inclination:      098.6241 deg
RA of node:       138.0343 deg
Eccentricity:    0.0013862
Arg of perigee:   205.3241 deg
Mean anomaly:     154.7246 deg
Mean motion:   14.11812522 rev/day
Decay rate:       1.70e-06 rev/day^2
Epoch rev:           36268
Checksum:              275

Satellite: OKEAN-0
Catalog number: 25860
Epoch time:      06144.64514167
Element set:    0756
Inclination:      097.7334 deg
RA of node:       160.0769 deg
Eccentricity:    0.0001148
Arg of perigee:   108.3204 deg
Mean anomaly:     251.8125 deg
Mean motion:   14.73364080 rev/day
Decay rate:        6.6e-07 rev/day^2
Epoch rev:           36828
Checksum:              292

Satellite: NOAA-16
Catalog number: 26536
Epoch time:      06144.76716010
Element set:    0891
Inclination:      099.0645 deg
RA of node:       111.1119 deg
Eccentricity:    0.0010299
Arg of perigee:   181.7190 deg
Mean anomaly:     178.3965 deg
Mean motion:   14.12340536 rev/day
Decay rate:       -9.4e-07 rev/day^2
Epoch rev:           29227
Checksum:              301

Satellite: NOAA-17
Catalog number: 27453
Epoch time:      06144.69926378
Element set:    0912
Inclination:      098.6206 deg
RA of node:       217.3664 deg
Eccentricity:    0.0012542
Arg of perigee:   140.5470 deg
Mean anomaly:     219.6622 deg
Mean motion:   14.23779072 rev/day
Decay rate:       -1.0e-07 rev/day^2
Epoch rev:           20343
Checksum:              296

Satellite: NOAA-18
Catalog number: 28654
Epoch time:      06144.73495311
Element set:    0492
Inclination:      098.7866 deg
RA of node:       088.5128 deg
Eccentricity:    0.0013651
Arg of perigee:   290.5465 deg
Mean anomaly:     069.4237 deg
Mean motion:   14.10961251 rev/day
Decay rate:        7.1e-07 rev/day^2
Epoch rev:           05207
Checksum:              314

/EX
SB KEPS @ AMSAT  $ORB06145.M
Orbital Elements  06145.MISC

HR AMSAT ORBITAL ELEMENTS FOR MANNED AND MISCELLANEOUS SATELLITES
FROM WA5QGD FORT WORTH,TX May 25, 2006
Send SUBSCRIBE KEPS/UNSUBSCRIBE KEPS to majordomo@amsat.org only
BID: ORB06145.M
TO ALL RADIO AMATEURS BT

